Date,TemperatureHighF,TemperatureAvgF,TemperatureLowF,DewpointHighF,DewpointAvgF,DewpointLowF,HumidityHigh,HumidityAvg,HumidityLow,PressureMaxIn,PressureMinIn,WindSpeedMaxMPH,WindSpeedAvgMPH,GustSpeedMaxMPH,PrecipitationSumIn
2013-1-1,68.0,60.1,50.0,68.0,57.3,45.0,100,91,73,30.15,29.82,22,13,29,0.08
2013-1-2,50.0,43.1,40.6,45.0,40.1,34.7,100,90,66,30.27,30.12,19,13,25,0.28
2013-1-3,48.0,44.8,41.9,38.3,33.8,27.1,86,67,45,30.36,30.27,16,12,21,0.00
2013-1-4,48.6,47.2,44.8,41.9,36.2,33.4,88,66,56,30.39,30.30,18,13,25,0.00
2013-1-5,48.4,46.1,44.1,47.7,42.7,34.9,100,89,65,30.33,30.21,18,12,24,0.00
2013-1-6,60.6,50.9,44.2,48.6,44.5,38.7,100,81,47,30.33,30.24,12,8,18,0.00
2013-1-7,59.7,53.3,45.5,57.9,51.1,41.4,100,92,78,30.27,29.97,14,9,22,0.04
2013-1-8,67.6,63.8,57.9,67.6,63.7,57.9,100,100,99,29.97,29.76,17,9,27,0.04
2013-1-9,69.4,64.3,61.5,69.1,64.1,61.5,100,100,99,30.00,29.74,21,8,31,2.53
2013-1-10,66.2,61.3,56.3,61.5,55.6,46.2,100,83,49,30.09,30.00,14,6,17,0.00
2013-1-11,73.9,66.8,58.5,72.7,66.4,58.5,100,99,93,30.03,29.79,9,6,17,0.00
2013-1-12,74.3,71.5,69.3,73.4,70.9,69.3,100,98,96,29.82,29.62,15,10,30,0.00
2013-1-13,72.3,58.0,50.7,71.8,48.3,35.4,100,73,45,30.06,29.68,25,14,33,0.08
2013-1-14,53.2,48.3,45.0,48.2,42.5,35.6,96,82,55,30.15,30.03,18,12,24,0.00
2013-1-15,49.3,46.0,43.2,49.3,45.2,40.1,100,97,89,30.18,30.00,18,13,26,0.12
2013-1-16,58.6,48.2,39.7,40.3,28.4,21.0,89,49,28,30.36,30.18,20,13,27,0.00
2013-1-17,65.8,53.1,42.4,48.4,37.2,28.6,89,58,29,30.41,30.27,10,5,15,0.00
2013-1-18,65.5,55.2,46.0,56.3,49.6,45.5,100,84,50,30.47,30.30,12,6,17,0.00
2013-1-19,70.0,60.6,53.1,59.7,53.6,47.1,100,80,47,30.30,30.15,10,6,15,0.00
2013-1-20,71.2,61.8,54.3,65.1,56.8,53.4,100,85,55,30.24,30.09,8,5,13,0.00
2013-1-21,70.5,62.5,57.4,65.8,59.0,55.9,100,89,68,30.21,30.09,9,6,13,0.00
2013-1-22,70.7,62.5,56.1,66.0,60.0,56.1,100,92,70,30.27,30.15,9,5,15,0.00
2013-1-23,75.2,66.2,59.5,70.7,64.2,59.5,100,94,75,30.30,30.21,9,6,15,0.00
2013-1-24,74.5,67.0,61.5,71.2,65.6,61.5,100,95,81,30.27,30.12,11,7,19,0.00
2013-1-25,74.3,67.6,63.1,70.7,66.0,63.1,100,95,78,30.15,30.03,11,8,18,0.00
2013-1-26,75.9,69.6,65.8,72.1,67.1,65.3,100,92,74,30.12,30.03,10,8,18,0.00
2013-1-27,74.1,70.0,66.9,72.3,69.5,66.0,100,98,93,30.06,29.94,12,8,20,0.00
2013-1-28,77.4,72.5,69.8,74.7,71.5,69.4,100,97,87,30.06,29.88,12,9,21,0.00
2013-1-29,77.0,73.2,70.5,76.5,71.3,45.7,100,95,38,29.91,29.56,22,14,35,0.00
2013-1-30,72.7,64.4,55.8,45.7,30.6,23.2,38,28,25,30.24,29.71,30,17,40,0.00
2013-1-31,67.8,60.0,53.4,48.9,32.7,22.6,67,37,25,30.30,30.21,9,6,14,0.00
2013-2-1,70.2,62.9,55.9,61.3,52.1,44.4,99,71,40,30.33,30.18,8,4,15,0.00
2013-2-2,73.6,65.3,59.5,65.3,60.0,56.1,100,85,57,30.21,30.12,9,5,15,0.00
2013-2-3,71.4,64.5,59.2,64.8,61.8,56.5,100,92,61,30.27,30.00,11,6,17,0.00
2013-2-4,73.6,67.6,63.3,69.8,65.8,62.1,100,94,84,30.00,29.76,12,7,19,0.00
2013-2-5,75.6,69.1,64.0,72.1,68.2,64.0,100,97,86,29.94,29.82,10,6,17,0.00
2013-2-6,70.9,68.1,65.1,70.5,68.1,65.1,100,100,99,29.97,29.79,21,9,30,1.74
2013-2-7,75.9,69.7,65.7,74.3,68.7,65.7,100,97,90,29.97,29.85,9,6,13,0.00
2013-2-8,73.6,66.4,61.2,68.2,57.7,48.6,100,76,42,30.15,29.97,17,9,22,0.00
2013-2-9,73.8,69.8,64.9,72.3,68.6,63.1,100,96,93,30.06,29.76,12,9,20,0.00
2013-2-10,81.7,72.7,68.0,77.4,66.0,49.1,100,82,46,29.88,29.71,16,9,24,0.00
2013-2-11,68.9,65.6,62.4,65.3,60.7,52.2,100,86,61,29.94,29.85,17,12,27,0.00
2013-2-12,71.6,65.9,63.1,66.0,63.5,60.3,100,93,70,29.97,29.79,16,8,22,0.04
2013-2-13,65.7,60.0,54.0,65.1,44.5,34.3,98,59,35,30.15,29.94,20,10,27,0.00
2013-2-14,68.2,61.2,54.0,49.1,42.0,35.1,76,51,33,30.12,30.03,10,6,16,0.00
2013-2-15,70.7,63.5,57.2,60.3,47.9,37.2,94,59,35,30.27,30.03,19,8,28,0.00
2013-2-16,62.6,55.3,47.7,39.4,28.7,21.9,53,37,27,30.44,30.24,20,10,28,0.00
2013-2-17,68.9,62.4,56.8,56.8,44.4,34.2,77,52,39,30.24,30.00,13,9,21,0.00
2013-2-18,71.4,66.6,64.2,65.1,62.4,57.2,99,87,75,30.00,29.82,14,10,23,0.00
2013-2-19,66.9,62.8,59.9,65.1,49.1,39.7,100,63,45,30.18,29.97,21,12,30,0.00
2013-2-20,69.3,66.3,62.6,67.8,64.3,56.3,100,93,79,30.00,29.65,14,10,25,0.00
2013-2-21,77.0,70.5,66.7,72.5,63.6,45.7,100,82,42,29.79,29.59,15,10,29,0.00
2013-2-22,69.4,65.6,59.7,59.7,46.3,35.2,83,52,30,29.88,29.76,17,11,27,0.00
2013-2-23,69.1,59.0,52.2,55.6,45.3,39.6,95,62,37,30.00,29.85,18,9,24,0.00
2013-2-24,66.6,62.2,56.3,66.0,61.7,54.9,100,98,94,29.88,29.59,12,6,20,0.00
2013-2-25,69.4,64.7,53.6,67.8,43.3,22.1,100,55,22,29.85,29.50,38,19,50,0.00
2013-2-26,67.3,55.0,46.4,46.8,29.0,21.4,66,38,26,30.00,29.85,17,10,24,0.00
2013-2-27,71.8,61.2,54.3,59.4,43.7,27.0,96,58,25,30.15,29.85,15,8,22,0.00
2013-2-28,57.2,52.1,46.9,31.6,24.0,20.1,48,34,28,30.27,30.15,21,12,28,0.00
2013-3-1,62.8,54.9,44.6,46.6,31.4,26.1,73,42,27,30.27,30.12,10,6,17,0.00
2013-3-2,60.8,53.0,45.9,47.1,28.8,21.7,80,42,27,30.39,30.21,20,11,25,0.00
2013-3-3,64.6,57.2,48.0,49.6,38.0,24.6,70,50,34,30.27,30.00,14,8,25,0.00
2013-3-4,69.1,63.3,59.4,61.7,55.6,48.9,98,77,55,30.00,29.74,19,14,31,0.00
2013-3-5,66.2,60.9,54.0,61.7,41.3,22.5,100,56,26,30.27,29.79,26,15,34,0.00
2013-3-6,59.2,52.7,44.4,45.7,28.9,18.3,71,41,29,30.39,30.21,15,9,23,0.00
2013-3-7,68.2,62.0,55.0,59.7,53.5,45.3,92,74,58,30.21,30.09,13,8,20,0.00
2013-3-8,70.0,64.8,61.9,66.7,62.5,59.9,99,93,80,30.09,30.00,14,9,22,0.00
2013-3-9,70.9,66.6,64.4,66.6,64.5,63.5,97,93,82,30.00,29.65,14,10,24,0.00
2013-3-10,72.7,66.3,58.5,66.7,51.0,32.9,97,64,27,30.03,29.56,24,13,33,0.00
2013-3-11,68.0,59.1,50.5,34.2,29.8,25.5,49,33,25,30.15,29.97,20,11,28,0.00
2013-3-12,67.8,60.6,53.2,46.9,38.3,30.7,74,45,31,30.21,30.03,10,6,17,0.00
2013-3-13,66.9,61.0,54.5,60.8,50.6,43.0,100,70,46,30.39,30.21,14,8,20,0.00
2013-3-14,71.4,63.9,57.7,60.6,54.8,50.7,98,74,49,30.36,30.24,9,6,14,0.00
2013-3-15,71.2,64.9,60.4,62.4,59.7,57.2,98,84,64,30.24,30.03,12,8,21,0.00
2013-3-16,73.0,66.7,63.0,65.8,63.2,61.3,97,89,71,30.03,29.79,14,10,23,0.00
2013-3-17,74.8,69.1,64.8,68.2,66.1,63.3,96,91,79,29.82,29.65,12,9,21,0.00
2013-3-18,77.5,70.9,66.9,68.4,66.8,64.8,95,87,70,29.85,29.68,12,6,18,0.00
2013-3-19,78.6,70.8,66.0,73.0,67.0,60.6,94,88,74,29.94,29.79,13,8,21,0.00
2013-3-20,75.2,68.7,63.9,67.1,57.1,46.6,93,68,46,30.12,29.85,21,13,35,0.00
2013-3-21,75.0,68.2,63.9,67.3,63.3,56.1,95,84,69,30.03,29.65,10,8,20,0.00
2013-3-22,76.6,71.4,68.5,72.7,69.1,67.1,96,92,86,29.71,29.59,11,8,22,0.00
2013-3-23,79.7,72.4,68.7,73.0,68.8,65.5,94,89,69,29.68,29.56,12,6,18,0.00
2013-3-24,69.3,64.4,56.5,67.8,43.2,23.7,96,54,24,30.09,29.62,28,15,36,0.00
2013-3-25,62.2,55.8,49.1,27.9,25.2,22.1,41,31,27,30.30,30.09,16,11,25,0.00
2013-3-26,63.7,57.4,50.4,30.6,26.2,21.7,40,30,27,30.41,30.30,15,10,28,0.00
2013-3-27,65.8,60.6,56.3,54.5,37.2,26.2,76,43,31,30.33,30.18,11,9,20,0.00
2013-3-28,70.0,64.8,61.7,61.9,59.4,54.9,93,83,68,30.21,30.12,11,7,18,0.00
2013-3-29,74.7,67.7,62.6,65.5,62.0,59.5,95,83,61,30.15,30.03,12,8,20,0.00
2013-3-30,75.7,69.2,64.4,68.0,65.7,63.0,97,89,75,30.09,29.91,11,8,18,0.00
2013-3-31,77.5,70.8,66.9,71.4,68.1,66.4,98,92,77,29.94,29.76,17,9,25,0.00
2013-4-1,76.5,71.2,67.1,73.6,69.0,66.6,99,93,79,30.00,29.85,18,8,39,0.00
2013-4-2,79.2,73.0,69.4,76.6,71.1,68.9,99,94,82,29.97,29.74,13,8,20,0.04
2013-4-3,75.4,68.4,59.5,72.1,63.5,55.9,99,85,58,30.09,29.76,20,12,28,0.08
2013-4-4,73.4,62.2,55.6,56.5,48.5,39.7,98,66,30,30.15,30.03,16,12,22,0.00
2013-4-5,67.1,60.0,51.3,56.7,49.0,43.5,86,68,50,30.24,30.06,12,7,19,0.00
2013-4-6,75.9,69.0,62.8,65.5,61.1,56.8,92,77,57,30.09,29.88,14,9,22,0.00
2013-4-7,78.1,71.4,66.9,69.4,66.8,64.9,98,86,67,29.91,29.79,12,9,20,0.00
2013-4-8,78.4,73.0,69.3,74.5,71.2,69.3,100,94,83,29.79,29.65,16,10,24,0.00
2013-4-9,81.5,74.9,71.2,76.1,72.8,70.7,99,94,78,29.71,29.59,16,11,24,0.00
2013-4-10,80.1,71.0,59.5,77.9,69.2,53.4,99,94,68,29.79,29.59,23,13,30,0.00
2013-4-11,72.3,60.2,50.0,53.8,46.0,38.1,94,63,32,29.94,29.76,24,13,34,0.95
2013-4-12,75.2,67.4,60.4,64.2,58.8,48.0,88,75,57,29.94,29.85,14,8,22,0.00
2013-4-13,77.4,71.1,66.0,69.4,65.0,60.4,100,82,58,29.91,29.71,14,8,22,0.00
2013-4-14,80.8,73.3,67.6,75.6,70.6,66.2,100,92,77,29.76,29.65,12,6,21,0.00
2013-4-15,83.3,76.1,71.1,75.4,73.1,70.7,100,91,74,29.79,29.68,16,10,29,0.00
2013-4-16,81.1,76.3,73.8,76.8,74.7,72.3,99,95,85,29.85,29.74,16,9,27,0.00
2013-4-17,82.0,77.4,74.8,78.3,75.9,74.1,99,95,87,29.85,29.65,15,10,26,0.00
2013-4-18,81.7,71.5,62.2,79.7,66.8,46.4,99,86,56,30.00,29.62,30,14,38,0.00
2013-4-19,68.5,61.4,55.8,46.8,36.1,27.3,57,40,28,30.27,30.00,25,13,33,0.00
2013-4-20,74.8,65.5,56.5,48.2,39.1,32.2,56,39,27,30.21,30.00,12,8,20,0.00
2013-4-21,78.8,70.5,65.5,65.1,57.3,47.7,93,64,47,30.09,29.97,14,8,22,0.00
2013-4-22,79.9,71.8,66.2,69.4,67.0,64.8,99,86,63,30.06,29.88,12,8,20,0.00
2013-4-23,80.4,73.5,69.1,73.9,71.0,69.1,100,92,77,29.91,29.79,12,9,20,0.00
2013-4-24,73.2,58.5,51.3,72.9,55.1,48.2,100,89,70,30.15,29.91,26,15,32,0.04
2013-4-25,68.4,64.2,62.2,68.4,58.9,48.2,100,84,58,30.24,30.12,14,11,24,0.04
2013-4-26,80.6,74.0,68.4,76.8,72.0,68.4,100,94,79,30.15,30.00,12,8,20,0.00
2013-4-27,83.8,76.8,72.3,78.8,73.7,72.0,99,91,75,30.06,29.88,14,8,22,0.00
2013-4-28,79.7,73.7,68.2,76.8,72.5,68.2,100,96,88,30.00,29.82,17,9,26,0.63
2013-4-29,85.1,76.8,71.2,81.1,74.6,71.2,100,94,73,29.91,29.76,15,6,22,1.10
2013-4-30,85.1,77.6,71.4,77.2,73.8,70.5,99,89,72,29.79,29.71,12,7,20,0.04
2013-5-1,87.1,79.9,74.5,80.8,76.2,74.1,99,89,72,29.85,29.71,12,7,19,0.00
2013-5-2,83.5,72.4,56.7,76.3,63.2,43.3,99,75,44,30.24,29.76,29,15,38,0.00
2013-5-3,71.8,61.6,52.9,44.8,32.9,26.2,65,35,25,30.27,30.06,27,16,38,0.00
2013-5-4,75.9,66.8,59.4,44.4,36.8,31.5,47,33,26,30.09,29.88,13,8,21,0.00
2013-5-5,78.4,69.4,62.4,61.3,50.2,42.6,91,53,28,30.06,29.91,13,8,20,0.00
2013-5-6,79.9,69.3,63.0,58.6,54.1,46.4,81,60,41,30.09,29.94,10,6,16,0.00
2013-5-7,79.7,72.7,64.9,66.2,59.0,55.8,86,63,46,30.06,29.94,12,8,22,0.00
2013-5-8,79.7,73.6,68.7,71.1,67.6,64.2,97,83,61,30.00,29.91,12,9,21,0.00
2013-5-9,78.8,75.0,72.3,75.9,73.7,71.1,99,96,90,29.94,29.76,11,8,20,0.00
2013-5-10,77.4,74.6,70.3,76.5,73.9,69.1,99,98,95,29.91,29.79,10,0,17,0.04
2013-5-11,85.5,76.9,70.7,73.6,69.5,62.6,100,80,53,30.03,29.91,0,0,4,0.28
2013-5-12,77.4,73.7,69.4,75.9,65.4,55.0,100,77,51,30.15,30.00,0,0,4,0.59
2013-5-13,82.9,74.8,68.2,70.2,64.8,59.9,95,72,53,30.24,30.12,0,0,4,0.00
2013-5-14,84.7,77.0,72.1,75.7,71.1,64.9,92,83,68,30.21,30.03,0,0,0,0.00
2013-5-15,80.8,76.7,73.9,77.9,74.7,72.1,100,94,85,30.09,29.88,0,0,3,0.16
2013-5-16,84.7,79.4,75.2,78.3,76.1,73.6,97,90,78,29.88,29.74,0,0,0,0.00
2013-5-17,86.5,81.0,76.8,80.6,77.9,75.9,98,91,77,29.88,29.76,0,0,6,0.00
2013-5-18,88.7,81.9,78.8,81.3,78.8,77.0,98,91,72,29.91,29.82,0,0,9,0.00
2013-5-19,87.3,82.4,79.3,80.8,79.3,78.1,97,91,80,29.85,29.74,0,0,5,0.00
2013-5-20,88.2,82.8,79.2,82.8,80.2,78.3,98,92,81,29.82,29.71,0,0,9,0.00
2013-5-21,90.0,84.1,80.1,83.5,80.6,79.5,98,90,76,29.79,29.68,0,0,4,0.00
2013-5-22,90.5,84.6,80.8,84.2,81.2,79.7,98,90,74,29.85,29.74,0,0,9,0.00
2013-5-23,90.5,84.9,81.1,84.7,81.9,80.2,97,91,79,29.97,29.82,1,0,22,0.00
2013-5-24,90.3,85.4,82.4,83.3,81.7,80.8,97,89,76,30.06,29.94,0,0,0,0.00
2013-5-25,89.1,84.5,82.4,84.4,81.6,79.9,96,91,83,30.06,29.97,0,0,0,0.00
2013-5-26,90.0,84.4,81.0,81.0,78.2,75.2,93,82,65,30.06,29.94,0,0,0,0.00
2013-5-27,89.8,84.2,80.8,82.2,79.3,77.7,97,86,72,30.00,29.85,0,0,0,0.00
2013-5-28,89.6,84.3,81.1,82.6,79.9,78.6,96,87,75,29.88,29.76,0,0,0,0.00
2013-5-29,86.0,83.3,81.1,82.2,80.8,79.0,97,92,86,29.82,29.71,0,0,0,0.00
2013-5-30,91.4,85.4,81.7,84.2,81.9,80.1,96,90,77,29.82,29.74,0,0,0,0.00
2013-5-31,92.3,86.1,82.4,84.9,82.4,81.3,97,89,75,29.85,29.76,0,0,0,0.00
2013-6-1,92.1,86.3,82.6,84.0,82.2,81.3,97,88,74,29.85,29.76,0,0,0,0.00
2013-6-2,92.8,83.7,76.6,86.7,79.5,72.5,100,88,61,30.00,29.82,0,0,0,0.16
2013-6-3,89.4,82.9,77.0,79.3,75.8,71.6,97,80,59,29.91,29.79,0,0,0,0.00
2013-6-4,92.3,83.4,77.2,77.2,73.4,69.6,93,74,52,29.85,29.79,0,0,0,0.00
2013-6-5,92.7,84.3,78.3,80.2,76.7,73.9,96,79,59,29.82,29.76,0,0,0,0.00
2013-6-6,92.8,84.5,79.0,81.5,78.5,76.1,96,83,62,29.82,29.71,0,0,0,0.00
2013-6-7,88.0,80.8,72.9,80.2,76.1,72.9,100,87,63,29.91,29.82,0,0,0,0.04
2013-6-8,72.9,72.9,72.9,72.9,72.9,72.9,100,100,100,29.91,29.91,0,0,0,0.00
2013-6-9,72.9,72.9,72.9,72.9,72.9,72.9,100,100,100,29.91,29.91,0,0,0,0.00
2013-6-10,72.9,72.9,72.9,72.9,72.9,72.9,100,100,100,29.91,29.91,0,0,0,0.00
2013-6-11,72.9,72.9,72.9,72.9,72.9,72.9,100,100,100,29.91,29.91,0,0,0,0.00
2013-6-12,89.8,78.1,72.9,80.6,75.1,72.9,100,92,68,30.00,29.91,0,0,0,0.75
2013-6-13,92.3,85.4,82.8,82.0,79.8,75.7,92,84,62,30.00,29.88,0,0,0,0.00
2013-6-14,91.4,85.8,82.9,84.0,80.5,78.8,90,84,74,29.94,29.85,0,0,0,0.00
2013-6-15,93.4,87.0,82.4,80.6,78.1,73.8,91,76,57,29.94,29.85,0,0,0,0.00
2013-6-16,93.6,86.2,82.2,81.3,78.9,77.2,90,80,64,29.97,29.88,0,0,0,0.00
2013-6-17,92.3,85.6,81.9,82.4,79.8,77.4,95,83,68,29.94,29.85,0,0,0,0.00
2013-6-18,93.0,85.4,80.6,80.1,78.4,76.1,93,80,60,29.94,29.85,0,0,0,0.00
2013-6-19,93.4,85.3,79.7,81.9,78.8,76.5,97,82,62,29.97,29.88,0,0,0,0.00
2013-6-20,93.7,85.5,80.2,81.5,79.7,78.4,97,84,63,30.03,29.91,0,0,0,0.00
2013-6-21,92.8,85.4,79.9,81.9,79.8,78.1,97,84,65,30.06,29.97,0,0,0,0.00
2013-6-22,93.2,85.5,80.2,81.3,79.8,78.3,98,84,63,30.00,29.91,0,0,0,0.00
2013-6-23,92.8,85.4,79.5,80.4,79.0,76.6,98,82,60,29.97,29.88,0,0,0,0.00
2013-6-24,91.9,85.5,80.4,82.4,80.0,78.3,97,84,68,30.00,29.91,0,0,0,0.00
2013-6-25,92.3,85.2,80.1,82.8,80.3,78.4,98,86,69,29.97,29.88,0,0,0,0.00
2013-6-26,92.8,85.5,80.2,84.7,81.4,79.7,99,88,73,29.94,29.88,0,0,0,0.00
2013-6-27,93.6,85.4,79.3,84.4,80.4,78.6,99,86,64,29.97,29.88,0,0,0,0.00
2013-6-28,92.8,85.4,80.1,82.2,80.3,78.3,99,86,65,29.97,29.79,0,0,0,0.00
2013-6-29,92.8,85.2,79.3,83.8,80.1,78.4,98,86,67,29.85,29.71,0,0,0,0.00
2013-6-30,86.5,80.9,73.8,80.2,76.0,70.3,100,85,64,29.88,29.74,0,0,4,0.91
2013-7-1,93.2,84.4,77.9,78.6,68.8,52.9,96,66,28,29.94,29.79,0,0,0,0.00
2013-7-2,91.4,82.5,76.8,77.5,67.6,52.9,95,66,29,30.00,29.91,0,0,0,0.00
2013-7-3,87.4,80.6,75.7,76.5,73.5,65.7,96,80,51,29.97,29.88,0,0,0,0.00
2013-7-4,91.0,82.3,75.2,79.0,74.7,69.3,100,80,54,29.94,29.85,0,0,0,0.00
2013-7-5,93.4,84.4,77.4,78.6,76.0,72.5,97,78,55,29.91,29.82,0,0,0,0.00
2013-7-6,93.2,83.8,78.6,82.2,78.5,76.1,98,85,61,29.88,29.79,0,0,0,0.00
2013-7-7,93.6,83.1,77.7,82.8,78.3,75.6,99,86,63,29.94,29.82,0,0,0,0.00
2013-7-8,91.8,85.1,81.5,84.2,80.5,78.3,97,87,73,30.06,29.94,0,0,0,0.00
2013-7-9,94.8,86.8,81.3,84.6,80.7,78.4,97,83,66,30.09,30.00,0,0,0,0.00
2013-7-10,93.7,86.1,80.2,83.7,79.6,75.6,99,82,60,30.06,29.91,0,0,0,0.00
2013-7-11,93.4,85.6,80.6,80.8,78.4,76.1,94,80,61,29.97,29.88,0,0,0,0.00
2013-7-12,93.2,84.8,80.4,80.8,77.0,72.5,91,79,58,29.91,29.85,0,0,0,0.00
2013-7-13,93.0,84.3,78.6,79.9,76.0,71.2,96,78,53,29.94,29.82,0,0,0,0.00
2013-7-14,90.5,84.4,79.3,80.2,77.4,75.4,94,80,63,29.91,29.79,0,0,0,0.00
2013-7-15,90.0,84.2,81.5,80.4,77.5,75.2,88,81,69,29.94,29.82,0,0,0,0.00
2013-7-16,91.2,83.3,79.3,79.2,77.0,71.1,96,82,57,30.00,29.91,0,0,0,0.00
2013-7-17,81.7,78.1,74.7,79.3,76.6,74.3,100,96,86,30.09,30.00,0,0,0,0.91
2013-7-18,90.3,82.2,74.3,80.8,76.9,73.6,100,85,60,30.09,29.94,0,0,0,0.24
2013-7-19,93.6,85.7,79.5,80.8,76.6,72.9,93,76,56,30.00,29.88,0,0,0,0.00
2013-7-20,93.2,85.3,81.1,79.3,76.5,73.9,87,76,56,29.94,29.82,0,0,0,0.00
2013-7-21,93.0,86.9,82.9,82.2,79.0,75.0,91,79,57,29.94,29.85,0,0,0,0.00
2013-7-22,92.8,86.4,83.5,81.1,79.7,75.6,90,81,58,29.97,29.88,0,0,0,0.00
2013-7-23,92.8,86.1,82.6,80.6,76.8,73.0,88,75,54,30.00,29.88,0,0,0,0.00
2013-7-24,92.7,85.8,82.0,78.6,76.6,72.7,88,75,55,29.94,29.85,0,0,0,0.00
2013-7-25,93.6,85.7,80.4,82.4,78.6,76.1,93,80,62,30.00,29.94,0,0,0,0.00
2013-7-26,92.8,85.6,81.9,80.4,78.7,77.5,90,80,62,30.00,29.88,0,0,0,0.00
2013-7-27,90.0,84.7,81.5,82.0,79.8,78.1,96,86,69,29.94,29.79,0,0,0,0.00
2013-7-28,93.0,85.9,81.5,82.4,80.5,78.4,97,85,65,29.91,29.82,0,0,0,0.00
2013-7-29,92.8,85.8,81.3,81.9,80.0,77.5,96,84,64,30.03,29.91,0,0,0,0.00
2013-7-30,92.5,85.5,80.6,83.3,80.8,79.7,98,87,69,30.06,29.97,0,0,0,0.00
2013-7-31,94.1,85.5,79.2,83.7,80.6,78.6,99,86,65,30.06,29.94,0,0,0,0.00
2013-8-1,92.7,85.3,80.4,82.0,79.9,75.6,99,85,60,30.00,29.88,0,0,0,0.00
2013-8-2,93.2,86.2,80.6,81.9,80.2,76.8,98,84,62,29.97,29.88,0,0,0,0.00
2013-8-3,94.3,87.0,81.5,83.5,81.0,77.9,99,83,64,30.00,29.91,0,0,0,0.00
2013-8-4,94.6,87.5,82.4,84.4,81.4,78.3,98,83,64,30.03,29.94,0,0,0,0.00
2013-8-5,93.4,86.9,82.4,83.7,81.2,78.3,97,84,65,30.00,29.88,0,0,0,0.00
2013-8-6,93.4,86.6,82.4,84.0,81.4,79.2,97,85,68,30.80,29.82,0,0,7,0.00
2013-8-7,93.4,86.5,81.7,83.3,81.1,79.5,98,85,68,29.91,29.79,0,0,8,0.00
2013-8-8,92.8,85.6,80.1,84.0,81.0,79.2,99,87,69,29.88,29.79,0,0,0,0.00
2013-8-9,94.6,85.9,79.9,82.8,79.8,74.1,99,84,54,29.91,29.85,0,0,3,0.00
2013-8-10,95.0,87.1,82.4,84.7,81.6,72.3,98,85,50,29.97,29.91,0,0,8,0.00
2013-8-11,95.2,86.4,81.3,82.9,79.9,74.3,98,82,54,30.00,29.94,0,0,0,0.00
2013-8-12,94.6,87.0,80.8,82.4,80.2,77.0,97,82,57,30.06,29.94,0,0,0,0.00
2013-8-13,94.3,87.4,82.4,83.3,81.2,79.0,97,83,63,30.00,29.88,0,0,0,0.00
2013-8-14,94.1,86.5,82.4,82.2,79.6,70.7,96,81,48,29.97,29.85,0,0,0,0.00
2013-8-15,92.1,85.4,80.4,84.6,79.9,77.0,98,85,62,29.97,29.88,0,0,7,0.00
2013-8-16,93.7,86.2,78.4,82.4,79.5,74.3,96,82,56,29.97,29.85,0,0,0,0.00
2013-8-17,91.9,84.3,77.7,78.1,75.0,68.0,97,75,50,29.97,29.88,0,0,4,0.00
2013-8-18,92.1,84.3,77.7,78.8,71.7,62.4,97,68,42,30.00,29.91,0,0,0,0.00
2013-8-19,92.5,84.4,78.6,75.7,72.8,68.9,89,70,49,30.00,29.88,0,0,0,0.00
2013-8-20,82.9,78.7,71.6,78.8,75.2,71.6,100,90,78,30.86,29.88,0,0,0,2.01
2013-8-21,91.0,83.9,75.2,81.7,74.9,68.7,98,76,51,30.00,29.94,0,0,0,0.08
2013-8-22,89.4,83.2,76.6,75.0,72.6,68.0,88,71,51,30.00,29.88,0,0,0,0.00
2013-8-23,91.6,84.6,79.0,75.9,71.7,65.5,86,67,44,29.97,29.85,0,0,0,0.00
2013-8-24,89.4,83.5,78.6,76.3,73.0,68.0,86,71,50,29.97,29.88,0,0,0,0.00
2013-8-25,89.4,83.1,78.3,76.1,72.6,67.6,90,72,50,30.00,29.94,0,0,0,0.00
2013-8-26,81.3,76.9,72.7,75.7,73.1,70.0,94,88,77,30.92,29.94,0,0,6,3.31
2013-8-27,90.5,84.6,79.0,76.8,72.2,65.7,86,68,46,30.06,29.97,0,0,0,0.00
2013-8-28,88.9,82.4,78.1,73.9,71.0,66.0,83,69,49,30.00,29.94,0,0,0,0.00
2013-8-29,90.9,84.3,78.6,75.2,69.7,62.4,85,64,40,30.03,29.94,0,0,0,0.00
2013-8-30,89.4,83.2,79.0,75.0,69.4,62.2,85,65,43,30.00,29.88,0,0,0,0.00
2013-8-31,89.2,82.9,78.1,73.6,68.5,62.1,85,63,42,29.91,29.82,0,0,0,0.00
2013-9-1,90.3,84.1,79.5,75.6,69.7,64.4,81,63,44,29.88,29.79,0,0,0,0.00
2013-9-2,91.0,84.6,80.8,74.1,70.1,65.3,78,63,46,29.94,29.82,0,0,0,0.00
2013-9-3,89.6,83.3,78.1,76.3,69.5,61.3,87,65,42,29.97,29.85,0,0,0,0.00
2013-9-4,89.6,83.0,78.1,75.0,70.0,64.6,88,66,47,30.00,29.91,0,0,0,0.00
2013-9-5,90.0,83.6,79.7,73.8,69.8,63.7,82,64,45,30.03,29.94,0,0,0,0.00
2013-9-6,87.4,81.8,76.8,76.8,71.4,66.7,87,72,52,30.03,29.91,0,0,0,0.24
2013-9-7,87.6,80.5,73.6,76.3,72.1,68.2,93,76,58,29.97,29.88,0,0,7,1.93
2013-9-8,84.0,79.1,72.5,77.4,71.4,68.4,93,78,63,30.86,29.85,0,0,3,0.91
2013-9-9,86.9,81.0,75.9,75.6,71.2,66.4,89,73,53,29.91,29.82,0,0,0,0.16
2013-9-10,89.6,83.3,79.7,74.3,70.8,66.6,79,67,50,29.97,29.88,0,0,0,0.00
2013-9-11,88.5,83.2,75.7,78.3,71.5,66.0,91,69,48,30.00,29.94,0,0,0,0.20
2013-9-12,88.3,82.9,78.8,74.8,70.2,64.2,84,67,47,29.97,29.85,0,0,0,0.00
2013-9-13,88.3,82.1,77.0,75.2,70.6,64.0,91,69,47,29.88,29.76,0,0,0,0.00
2013-9-14,88.7,83.0,76.8,75.2,70.8,64.9,89,68,47,29.85,29.76,0,0,4,0.08
2013-9-15,88.5,82.4,77.7,77.0,72.8,68.5,87,73,53,30.65,29.79,0,0,10,0.28
2013-9-16,87.3,80.8,75.9,76.5,74.8,70.9,91,82,67,30.21,29.85,2,0,10,0.28
2013-9-17,89.2,83.6,80.8,77.4,74.6,70.9,85,75,58,29.97,29.88,0,0,6,0.00
2013-9-18,87.8,82.6,78.1,77.9,74.8,71.1,90,78,63,29.94,29.82,12,5,21,0.08
2013-9-19,90.1,84.3,80.6,77.4,74.9,72.9,83,74,59,29.88,29.76,12,8,21,0.00
2013-9-20,89.1,83.2,79.9,79.7,77.0,74.7,90,82,67,29.79,29.68,14,9,23,0.00
2013-9-21,79.9,75.5,73.0,76.3,68.8,61.0,94,80,58,29.76,29.68,25,15,33,0.36
2013-9-22,84.0,77.7,71.8,67.8,56.5,38.1,81,53,20,29.79,29.71,16,10,21,0.00
2013-9-23,82.4,77.0,71.4,72.0,66.4,61.7,83,70,53,29.76,29.68,14,8,20,0.00
2013-9-24,92.5,81.0,73.4,75.2,67.8,48.6,88,68,23,29.85,29.76,12,6,16,0.00
2013-9-25,90.5,81.7,76.1,75.7,68.0,58.8,89,66,35,29.85,29.76,10,6,12,0.00
2013-9-26,89.1,81.9,77.7,74.3,69.7,65.1,83,68,46,29.85,29.76,11,5,20,0.00
2013-9-27,88.9,83.9,80.1,77.0,74.8,71.2,84,75,60,29.88,29.79,12,9,22,0.00
2013-9-28,89.8,84.4,81.3,77.9,74.5,70.9,85,73,55,29.91,29.82,13,9,22,0.00
2013-9-29,88.0,80.9,75.9,75.0,72.7,67.6,92,77,52,29.97,29.85,14,8,20,0.24
2013-9-30,86.9,80.2,74.1,75.9,73.6,71.2,92,81,63,29.88,29.76,9,3,14,0.00
2013-10-1,89.4,83.2,78.3,79.0,74.3,69.6,89,75,61,29.88,29.79,0,0,0,0.04
2013-10-2,89.4,83.7,78.6,75.6,72.4,69.6,82,69,55,29.91,29.82,0,0,0,0.00
2013-10-3,87.8,82.8,77.0,75.0,69.6,64.2,86,66,46,29.91,29.82,0,0,0,0.00
2013-10-4,87.8,82.4,79.2,72.9,70.3,67.8,79,67,53,29.88,29.82,0,0,0,0.00
2013-10-5,88.0,81.6,76.5,74.5,71.8,69.3,86,73,56,29.88,29.79,0,0,0,0.00
2013-10-6,78.8,67.4,56.3,73.8,48.6,29.3,96,57,19,30.09,29.88,25,12,34,0.39
2013-10-7,78.4,69.1,59.5,43.9,34.5,25.9,56,30,16,30.12,30.00,11,7,15,0.00
2013-10-8,78.6,70.0,61.3,57.4,48.6,31.5,80,50,26,30.06,29.97,7,5,13,0.00
2013-10-9,81.3,74.8,69.8,49.1,46.9,43.3,46,38,27,30.00,29.91,10,7,18,0.00
2013-10-10,82.2,76.3,72.3,66.0,56.6,46.9,73,52,36,29.97,29.88,12,8,22,0.00
2013-10-11,83.5,78.5,74.7,75.0,71.1,65.1,89,78,68,29.88,29.79,12,9,22,0.00
2013-10-12,86.0,80.8,77.2,77.9,75.1,73.6,91,83,68,29.97,29.85,10,1,18,0.00
2013-10-13,82.9,79.4,75.4,77.0,74.5,72.0,92,85,74,30.06,29.94,0,0,0,0.16
2013-10-14,85.6,80.8,77.0,75.0,69.9,65.1,92,71,53,30.03,29.88,0,0,0,0.00
2013-10-15,85.8,80.3,77.5,70.7,67.9,63.1,78,67,49,29.94,29.82,0,0,0,0.00
2013-10-16,79.3,73.0,63.7,73.2,66.5,60.1,95,80,68,30.00,29.85,13,6,19,0.08
2013-10-17,75.7,67.1,62.1,60.1,55.6,50.7,90,68,45,30.06,29.91,16,9,21,0.00
2013-10-18,79.2,74.9,69.3,75.4,69.8,57.0,93,84,65,29.94,29.76,14,8,21,0.36
2013-10-19,76.5,66.2,60.6,73.6,53.0,35.4,95,67,28,30.09,29.85,22,13,30,1.46
2013-10-20,76.5,66.6,57.6,62.8,53.2,36.3,84,63,40,30.06,29.88,9,7,15,0.00
2013-10-21,77.4,73.7,70.3,71.4,67.5,60.1,91,81,67,29.91,29.82,9,6,15,0.16
2013-10-22,77.7,69.7,61.5,58.3,47.7,34.2,87,50,24,30.09,30.00,16,10,21,0.00
2013-10-23,78.4,68.0,60.3,55.0,39.8,25.9,78,41,16,30.15,30.06,8,6,13,0.00
2013-10-24,77.5,69.7,61.9,58.8,50.5,38.7,84,53,34,30.18,30.09,10,6,17,0.00
2013-10-25,79.9,73.1,67.6,61.3,53.7,48.0,71,51,40,30.24,30.15,12,8,20,0.00
2013-10-26,80.1,74.4,71.2,63.9,58.3,53.6,76,58,44,30.15,30.03,10,8,20,0.00
2013-10-27,80.6,73.9,68.5,69.6,66.3,62.4,92,78,54,30.06,29.94,8,5,14,0.00
2013-10-28,81.1,75.8,71.8,71.6,68.3,65.7,91,79,61,30.03,29.94,11,4,19,0.00
2013-10-29,82.0,77.5,74.1,73.6,70.2,67.6,89,79,63,30.06,29.94,11,1,19,0.00
2013-10-30,84.6,79.2,76.1,77.2,74.8,73.2,92,87,75,29.97,29.79,0,0,0,0.00
2013-10-31,85.3,80.1,77.2,77.9,75.5,67.8,91,86,70,29.85,29.74,8,2,14,0.00
2013-11-1,83.3,78.0,74.1,72.9,65.4,58.5,91,66,50,29.94,29.79,9,6,15,0.00
2013-11-2,76.1,68.1,62.6,71.6,32.8,23.4,90,29,17,30.21,29.91,22,15,30,0.00
2013-11-3,73.4,65.8,57.9,47.8,35.1,28.0,58,33,25,30.18,30.00,10,7,16,0.00
2013-11-4,73.2,68.1,64.4,65.3,54.3,33.4,85,64,28,30.03,29.94,8,4,13,0.00
2013-11-5,80.2,74.0,68.7,71.6,68.3,64.8,93,83,67,29.97,29.88,11,6,20,0.00
2013-11-6,82.2,71.8,58.3,73.6,66.5,48.2,94,84,61,30.21,29.94,23,8,30,0.24
2013-11-7,63.3,57.8,53.2,49.3,32.9,21.9,72,41,22,30.36,30.18,23,16,30,0.00
2013-11-8,66.7,59.8,53.6,48.6,42.6,32.4,67,53,40,30.30,30.12,15,10,21,0.00
2013-11-9,73.8,66.8,59.4,61.7,56.3,47.5,89,70,48,30.12,30.06,12,6,19,0.00
2013-11-10,65.8,64.3,62.1,64.0,56.2,44.8,94,76,47,30.24,30.09,12,7,20,0.00
2013-11-11,72.9,66.5,62.2,59.9,56.1,47.3,85,70,57,30.21,30.09,10,7,16,0.00
2013-11-12,70.5,61.6,52.7,60.8,49.8,37.6,93,68,35,30.50,30.15,24,16,31,0.00
2013-11-13,53.4,47.9,41.7,43.2,27.0,16.7,71,46,24,30.56,30.36,21,11,27,0.00
2013-11-14,63.7,55.9,46.2,55.8,43.8,26.4,92,65,42,30.36,30.00,10,6,16,0.00
2013-11-15,71.6,63.8,55.6,64.4,58.9,54.1,96,85,61,30.00,29.85,7,3,11,0.00
2013-11-16,76.1,70.6,65.5,72.7,68.1,63.3,95,92,85,29.88,29.76,11,6,19,0.00
2013-11-17,79.3,73.6,70.2,73.4,70.1,68.0,93,89,79,29.88,29.76,11,4,19,0.00
2013-11-18,78.3,73.4,69.8,74.8,70.1,61.2,93,90,73,30.00,29.88,13,5,21,0.00
2013-11-19,72.9,69.8,67.1,64.9,61.4,57.0,84,75,64,30.03,29.94,14,10,25,0.00
2013-11-20,81.7,74.7,70.0,74.3,70.2,64.9,92,86,72,29.94,29.82,12,7,20,0.00
2013-11-21,83.1,77.3,73.6,77.5,73.3,71.2,93,88,75,30.00,29.88,8,1,13,0.00
2013-11-22,79.5,61.2,43.7,76.6,59.4,43.5,99,94,75,30.27,29.97,24,11,30,0.08
2013-11-23,48.4,45.6,42.3,46.2,43.2,41.2,99,91,81,30.36,30.27,20,16,29,0.00
2013-11-24,49.6,47.0,43.5,48.9,40.9,34.5,98,80,60,30.36,30.24,18,14,24,0.12
2013-11-25,46.9,44.3,42.6,46.2,42.5,38.5,100,93,82,30.24,30.00,21,15,30,0.04
2013-11-26,50.2,46.0,42.6,43.5,36.0,28.6,100,70,45,30.33,30.06,27,18,36,0.04
2013-11-27,53.2,45.8,40.3,35.1,24.8,14.7,69,46,22,30.44,30.30,17,9,24,0.00
2013-11-28,58.3,50.4,42.8,50.0,35.2,23.5,91,58,29,30.39,30.30,12,7,16,0.00
2013-11-29,65.3,57.6,49.3,61.3,53.5,48.2,98,87,74,30.39,30.30,15,9,24,0.00
2013-11-30,74.3,66.3,59.4,63.7,57.1,51.6,93,74,46,30.33,30.18,10,6,16,0.00
2013-12-1,76.1,66.5,59.5,64.9,60.4,56.7,94,82,53,30.18,29.94,9,5,17,0.00
2013-12-2,73.0,65.7,60.4,66.6,62.2,59.4,97,89,71,29.94,29.71,12,6,17,0.00
2013-12-3,72.9,67.5,63.5,67.3,64.1,61.5,95,89,76,29.74,29.62,12,9,20,0.00
2013-12-4,77.5,70.4,66.7,72.7,67.8,64.9,95,92,81,29.76,29.68,11,8,19,0.00
2013-12-5,75.2,63.3,44.6,72.7,59.9,40.6,94,89,72,29.97,29.76,20,10,26,0.00
2013-12-6,47.3,42.1,36.9,40.6,34.3,26.6,91,75,54,30.33,29.97,18,15,28,0.00
2013-12-7,36.9,35.4,34.2,30.9,27.5,24.3,82,73,66,30.39,30.27,16,11,23,0.00
2013-12-8,48.0,41.6,35.2,45.1,36.8,30.6,90,83,71,30.24,30.03,11,8,16,0.00
2013-12-9,54.1,49.6,43.3,53.6,48.7,41.5,99,97,90,30.24,30.00,22,12,28,0.08
2013-12-10,47.7,43.2,37.8,41.5,27.0,19.0,93,56,32,30.44,30.24,23,12,32,0.00
2013-12-11,53.4,49.5,45.3,41.2,33.7,25.2,64,55,44,30.44,30.27,12,8,19,0.00
2013-12-12,56.7,49.9,44.6,36.0,32.1,24.1,69,51,29,30.50,30.30,16,10,21,0.00
2013-12-13,66.6,56.4,47.5,59.4,48.0,35.8,95,74,62,30.30,29.85,10,6,15,0.00
2013-12-14,68.7,56.7,45.3,55.9,42.5,25.7,92,63,20,30.30,29.85,20,11,30,0.00
2013-12-15,57.2,46.7,40.1,35.2,27.5,19.0,65,49,23,30.41,30.27,17,7,23,0.00
2013-12-16,60.4,50.7,40.1,48.7,40.8,30.0,96,73,32,30.33,30.24,6,4,10,0.00
2013-12-17,65.5,55.3,45.7,57.6,49.6,45.0,97,83,51,30.30,30.21,8,5,12,0.00
2013-12-18,68.7,59.9,51.4,60.6,51.8,45.5,96,77,46,30.27,30.06,9,5,15,0.00
2013-12-19,69.1,63.8,60.6,64.6,60.8,54.9,96,90,81,30.06,29.82,12,8,21,0.00
2013-12-20,71.6,66.0,61.0,69.1,63.9,59.9,96,93,85,29.85,29.65,15,8,25,0.00
2013-12-21,71.6,66.9,61.7,67.3,60.8,48.0,95,82,44,29.76,29.56,16,9,26,0.00
2013-12-22,70.7,61.8,47.5,56.5,44.4,29.8,84,57,23,30.27,29.76,21,12,28,0.00
2013-12-23,55.9,46.8,39.6,32.7,27.8,23.2,62,49,31,30.50,30.27,21,10,28,0.00
2013-12-24,60.1,52.1,42.1,45.5,40.5,30.2,87,65,51,30.50,30.24,10,7,17,0.00
2013-12-25,67.1,58.7,54.3,59.7,54.1,45.5,100,86,62,30.27,30.18,9,5,15,0.00
2013-12-26,54.9,52.9,50.4,54.9,49.8,43.0,100,90,68,30.33,30.24,13,10,20,0.08
2013-12-27,53.4,51.1,49.1,51.8,49.6,46.0,100,95,79,30.36,30.27,12,8,16,0.12
2013-12-28,59.0,51.4,48.4,48.7,40.2,27.1,95,68,30,30.27,30.03,8,5,11,0.00
2013-12-29,61.5,54.7,46.0,54.9,49.5,45.0,98,84,56,30.09,29.97,14,4,19,0.00
2013-12-30,56.5,42.3,39.0,51.6,36.5,30.0,92,80,63,30.36,30.06,21,13,29,0.00
2013-12-31,44.8,41.8,40.1,44.2,35.7,29.8,98,79,63,30.41,30.27,12,8,18,0.08
2014-1-1,54.3,49.4,43.9,54.3,49.2,43.9,100,99,96,30.24,30.00,8,6,12,0.00
2014-1-2,55.9,49.0,41.7,55.9,34.8,20.7,100,61,34,30.41,30.03,24,12,34,0.00